Вернуться в каталог

STARLINK-37887

АктивенСвязьVLEO
NORAD 69832·PAYLOAD·🇺🇸 United States

Запущен Jul 5, 2026 с Cape Canaveral Space Force Station

Loading…

Ближайшие Пролёты (ближайшие 24 часа)

TLE

СвежийSource: CelesTrak SupGP

Эпоха: Sep 15, 2026, 04:22 UTC

1 69832C 26154P   26258.18243056  .00074489  00000+0  22006-2 0  2589
2 69832  53.1588 356.5592 0001234  91.9244 211.8086 15.34355927    15

Отслеживайте STARLINK-37887 в реальном времени с AllMySat

Download on the App Store